Wind_Speed
23 23 24 24 25 26 27 28 28 28 29 29 29 29 29 28 28 29 29 29 28 28 28 28 27 27 27 27 27 27 27 27 27 26 26 26 26 26 27 26 26 26 25
24 24 25 25 25 26 27 28 28 28 29 29 29 29 29 29 29 29 29 28 28 28 28 28 28 28 27 27 28 28 28 28 28 27 26 26 27 27 27 28 28 27 27
24 25 26 26 26 27 27 28 28 28 29 29 29 28 29 29 29 29 29 29 28 29 28 28 29 28 28 28 28 28 29 30 30 29 28 27 28 27 28 28 29 29 29
25 25 26 27 27 27 27 27 28 29 29 30 30 29 29 29 28 28 29 29 29 29 28 28 29 29 29 29 28 28 29 30 29 29 29 29 29 28 29 30 30 30 31
26 26 26 27 27 27 27 27 28 28 29 30 31 30 30 29 28 28 28 29 29 29 29 29 29 29 29 29 29 29 29 29 30 30 30 29 29 30 29 29 30 30 31
26 26 27 27 27 27 26 27 28 28 28 28 29 29 30 29 28 28 28 28 29 29 29 29 29 29 29 30 29 29 29 29 30 31 31 30 29 30 30 30 31 31 31
26 26 27 27 26 26 26 27 28 27 27 27 27 27 27 27 28 28 28 28 28 29 29 29 28 29 29 30 30 30 30 29 30 31 31 31 31 31 31 31 32 32 32
24 25 25 25 26 25 25 26 26 25 25 26 25 25 26 26 27 27 27 28 28 29 30 30 29 29 30 30 30 30 30 30 29 30 30 31 31 32 32 32 32 33 32
23 24 24 24 24 24 24 25 25 24 24 24 24 25 24 24 25 26 27 29 29 30 30 30 30 30 30 30 30 29 30 30 30 30 31 31 32 32 33 33 33 34 34
23 23 23 22 22 23 24 23 23 24 24 24 24 25 25 26 26 25 26 28 29 30 30 30 30 30 29 30 30 30 31 30 31 31 31 32 32 32 33 33 33 34 34
23 23 23 22 22 22 22 22 23 23 25 25 24 25 26 27 27 27 26 27 29 29 30 30 30 29 28 29 30 30 31 31 30 31 32 32 33 33 33 34 35 35 35
23 23 23 23 22 22 22 23 24 24 25 25 25 26 27 28 28 27 27 27 28 28 28 28 28 29 29 29 30 30 30 30 31 31 32 32 33 33 33 34 34 34 34
23 23 24 24 24 24 24 24 24 25 24 25 26 27 28 28 28 28 27 27 26 26 27 28 28 28 29 29 30 30 29 30 31 32 32 32 33 33 34 34 33 33 34
23 23 23 24 25 25 25 25 24 25 26 26 26 27 28 28 28 27 27 27 27 27 27 27 28 28 29 31 31 32 31 30 30 31 32 32 32 32 33 33 33 32 33
22 22 22 23 24 24 24 25 26 26 26 26 27 27 27 27 27 27 27 27 27 27 27 27 27 28 29 30 31 32 32 31 31 31 32 32 32 32 33 33 33 32 32
22 22 21 21 22 23 24 25 26 26 26 25 26 26 26 26 26 26 26 27 27 26 26 26 27 28 29 30 30 31 31 31 31 31 31 31 32 32 32 32 33 33 33
22 22 21 21 22 24 24 25 25 25 25 25 26 25 24 23 23 23 24 24 25 25 25 25 25 26 27 28 29 31 31 32 32 32 31 31 32 32 32 33 32 32 33
21 21 22 22 23 24 24 24 24 25 25 25 24 24 23 22 22 22 22 23 23 23 23 23 24 25 26 27 28 29 30 31 32 32 31 31 32 32 32 33 33 33 33
20 21 22 22 23 24 23 23 23 23 23 24 24 23 21 21 21 21 21 22 22 23 23 23 23 24 25 25 26 27 29 30 32 32 32 32 32 32 32 32 32 32 33
21 22 22 22 22 23 22 22 22 23 23 23 23 22 21 21 21 21 21 22 22 22 22 22 22 22 23 24 25 26 27 29 30 31 31 31 32 32 32 32 32 31 31
21 21 22 22 22 22 23 23 23 23 23 22 22 22 21 21 21 20 20 20 20 21 21 21 21 22 23 24 25 26 26 26 28 29 30 31 31 32 33 33 33 32 32
22 22 23 23 23 23 23 23 22 22 21 21 21 21 21 20 19 19 19 19 19 19 19 20 21 21 22 23 24 24 23 24 25 26 28 29 31 32 32 32 33 33 33
22 22 22 22 22 22 22 22 21 21 21 21 21 20 19 18 18 17 18 18 18 18 18 19 20 20 20 20 20 20 21 21 22 23 24 25 27 29 30 31 32 33 34
21 21 21 21 21 22 22 21 21 21 20 20 20 19 18 17 17 17 17 17 18 18 18 17 17 18 17 17 17 17 18 19 20 21 22 22 24 25 26 27 29 31 31
20 19 19 20 20 21 20 20 20 21 20 20 19 19 18 16 17 17 16 16 16 17 16 16 15 15 15 16 16 17 18 19 19 20 20 22 23 24 25 26 27 28 29
19 19 19 19 19 19 19 19 19 20 20 20 19 18 18 17 17 17 16 15 15 15 15 15 15 15 15 16 17 17 18 18 18 19 20 21 22 23 23 25 25 26 27
Wind_Direction
288 289 291 287 284 284 283 284 283 281 280 280 279 277 276 275 274 273 273 272 270 268 269 267 266 264 263 262 261 258 256 254 253 253 253 253 252 250 247 246 246 243 243
290 291 292 290 285 285 286 286 284 282 282 281 280 277 275 273 271 271 271 271 269 269 268 267 266 263 262 261 260 258 256 254 253 253 253 253 253 250 248 247 247 247 246
291 292 292 289 286 286 287 286 284 284 282 282 281 277 275 271 270 269 270 270 269 269 268 266 265 263 261 260 259 257 257 254 253 252 252 253 251 248 248 248 248 248 248
293 293 292 289 287 286 286 286 286 284 283 281 281 280 278 274 272 270 269 269 267 267 268 266 265 263 261 259 257 257 256 254 251 252 251 252 249 246 247 247 249 249 249
293 293 292 291 289 287 286 286 286 286 284 283 282 281 279 275 274 272 270 269 267 267 267 267 265 263 261 258 258 257 257 254 251 251 250 251 249 246 247 248 249 248 249
292 294 293 292 289 287 286 285 285 286 286 285 282 280 278 276 274 272 270 270 268 267 267 267 266 264 262 259 259 259 257 254 253 251 251 252 251 249 249 248 248 249 250
294 294 293 292 290 289 289 288 286 287 288 286 284 281 279 277 275 273 271 270 269 267 265 265 265 264 262 260 259 260 258 256 253 252 252 252 252 250 249 249 248 249 249
297 297 296 296 293 291 289 289 290 289 290 288 286 283 281 281 278 275 273 272 270 268 265 264 264 264 262 260 259 259 258 256 254 252 250 251 251 250 250 250 249 249 249
298 298 299 299 298 296 293 292 291 290 289 289 288 288 286 284 280 278 276 274 272 269 267 265 264 264 262 259 259 257 257 256 255 251 250 250 251 251 250 250 250 250 249
299 299 300 300 300 298 294 294 293 291 290 289 289 289 287 286 285 281 278 275 273 270 267 266 265 262 260 259 259 257 255 257 255 252 252 251 251 250 250 250 251 251 250
300 301 301 302 300 297 296 296 295 295 294 293 291 291 289 287 285 283 280 276 274 271 268 266 263 261 259 259 259 258 256 255 254 253 253 252 252 251 251 250 250 251 251
301 303 304 304 300 297 297 298 298 298 296 294 292 291 290 288 286 283 281 278 275 272 269 266 263 261 260 259 257 256 256 255 254 254 254 253 252 252 251 250 251 251 251
302 304 305 304 300 298 298 300 298 298 299 297 293 292 290 288 286 283 281 279 275 272 269 266 264 262 261 259 258 257 256 256 255 256 255 253 253 252 251 251 251 252 252
302 304 305 303 302 301 302 301 301 300 299 296 293 291 290 289 286 284 281 277 275 273 270 267 263 260 261 260 260 258 257 256 255 256 256 255 254 253 252 251 251 252 252
305 305 305 305 304 303 303 302 302 303 301 298 295 293 293 290 286 283 279 277 276 275 270 267 265 261 260 260 260 259 258 257 257 257 256 255 253 253 253 254 254 253 252
311 310 308 306 306 305 302 303 305 304 302 301 300 296 294 292 288 282 278 276 276 274 271 267 265 263 261 259 258 258 258 256 256 257 257 256 254 253 253 254 254 253 253
314 314 310 310 311 310 307 305 306 307 305 303 301 298 295 293 289 284 280 277 275 274 272 270 268 266 264 262 259 255 254 255 255 257 258 257 256 255 255 255 253 253 253
316 315 312 311 312 313 311 308 308 309 309 307 305 301 296 293 291 288 284 281 278 276 273 272 270 268 266 264 261 258 257 257 258 259 259 258 257 257 255 254 253 253 254
317 315 313 311 312 313 313 312 311 312 311 311 310 307 302 296 294 290 286 284 280 277 275 273 272 270 268 265 264 262 261 260 260 260 259 257 257 257 255 253 253 253 253
318 318 317 316 316 315 315 314 314 315 314 315 315 312 306 301 297 294 290 288 285 282 279 276 274 274 272 268 267 267 265 262 260 259 257 256 256 255 254 253 253 253 253
319 319 319 319 319 318 319 317 315 316 316 318 318 315 311 306 301 298 296 292 289 286 282 281 276 275 273 271 269 267 266 263 260 259 256 255 254 253 252 252 253 253 252
319 321 322 321 321 321 322 321 318 318 318 319 318 317 315 310 306 303 300 297 293 288 285 283 281 281 277 272 270 267 265 263 261 260 257 255 254 253 253 253 252 251 250
321 323 324 325 325 325 325 325 324 323 322 321 320 318 316 316 313 309 304 299 297 294 290 289 287 286 283 281 276 271 270 269 266 263 261 260 258 256 254 253 252 252 251
324 325 327 329 330 330 330 331 332 330 329 327 324 323 319 315 314 312 309 305 301 297 293 293 292 289 286 282 281 277 273 273 272 269 265 262 261 260 260 258 257 255 253
329 329 330 332 334 335 336 336 336 337 335 331 327 323 321 318 316 315 313 309 306 301 297 295 295 290 286 284 283 280 278 276 272 270 267 263 260 259 259 259 260 257 255
333 333 335 338 340 341 342 341 341 341 341 337 332 327 323 320 317 317 317 314 310 308 305 301 297 293 288 285 282 281 281 278 274 271 269 266 262 260 259 260 260 259 257
Height
5831 5830 5828 5826 5825 5824 5823 5822 5820 5819 5818 5817 5816 5816 5815 5815 5814 5814 5813 5813 5813 5813 5813 5813 5814 5814 5815 5816 5817 5818 5820 5822 5823 5825 5827 5829 5830 5832 5834 5836 5839 5841 5843
5825 5824 5822 5820 5819 5817 5816 5815 5814 5813 5811 5810 5809 5809 5808 5808 5807 5807 5806 5806 5806 5806 5806 5806 5807 5807 5808 5809 5810 5811 5813 5815 5817 5818 5821 5823 5824 5826 5828 5831 5833 5835 5837
5819 5817 5816 5814 5812 5811 5809 5808 5807 5806 5804 5803 5802 5801 5800 5800 5800 5799 5799 5799 5799 5799 5799 5799 5800 5800 5801 5802 5803 5804 5806 5808 5809 5811 5814 5816 5818 5820 5822 5824 5827 5829 5831
5813 5811 5809 5808 5806 5804 5803 5801 5800 5798 5797 5796 5795 5794 5793 5792 5792 5792 5792 5792 5792 5792 5792 5792 5792 5793 5794 5795 5796 5797 5798 5799 5802 5804 5806 5809 5811 5813 5815 5818 5820 5822 5825
5807 5804 5803 5801 5799 5797 5795 5794 5793 5791 5790 5788 5787 5786 5785 5785 5784 5784 5784 5784 5784 5784 5784 5785 5785 5786 5786 5787 5789 5790 5791 5792 5795 5797 5799 5801 5803 5806 5808 5810 5813 5815 5818
5799 5797 5796 5794 5792 5790 5788 5787 5785 5784 5782 5780 5779 5778 5777 5777 5776 5776 5776 5777 5777 5777 5777 5777 5778 5778 5779 5780 5781 5782 5783 5784 5787 5789 5791 5793 5796 5798 5801 5803 5806 5808 5810
5792 5790 5788 5786 5784 5782 5781 5779 5778 5776 5775 5773 5771 5770 5770 5769 5768 5768 5768 5768 5769 5769 5769 5769 5770 5771 5772 5772 5774 5775 5776 5777 5779 5781 5783 5786 5788 5791 5793 5796 5798 5800 5803
5785 5783 5781 5779 5777 5775 5773 5772 5771 5769 5767 5765 5764 5763 5763 5762 5760 5760 5760 5760 5760 5761 5761 5761 5762 5763 5764 5765 5766 5767 5769 5770 5772 5773 5775 5778 5780 5783 5785 5788 5790 5792 5795
5779 5777 5775 5772 5770 5768 5766 5765 5764 5762 5761 5759 5757 5756 5755 5755 5754 5753 5752 5752 5752 5752 5753 5753 5753 5754 5755 5756 5758 5760 5761 5762 5764 5765 5767 5770 5772 5774 5777 5779 5782 5784 5786
5773 5771 5769 5766 5764 5761 5760 5758 5757 5755 5753 5752 5750 5748 5748 5747 5746 5746 5745 5744 5744 5744 5744 5744 5745 5746 5747 5748 5750 5751 5753 5754 5756 5757 5759 5761 5763 5766 5768 5770 5773 5775 5777
5768 5765 5763 5760 5758 5756 5754 5752 5750 5748 5747 5745 5743 5741 5740 5739 5737 5737 5738 5737 5736 5735 5736 5736 5737 5738 5739 5740 5741 5743 5744 5746 5747 5749 5751 5752 5755 5757 5759 5761 5763 5765 5768
5763 5760 5757 5754 5752 5750 5748 5746 5744 5742 5740 5738 5736 5734 5733 5731 5730 5729 5729 5729 5728 5728 5727 5728 5728 5729 5730 5731 5733 5734 5735 5737 5739 5740 5742 5743 5745 5747 5749 5751 5753 5756 5758
5757 5754 5751 5749 5747 5745 5742 5739 5737 5736 5733 5731 5729 5727 5725 5723 5722 5720 5720 5720 5719 5720 5720 5720 5720 5721 5722 5723 5724 5726 5727 5728 5730 5731 5733 5734 5736 5738 5740 5742 5744 5746 5748
5752 5749 5746 5743 5741 5738 5736 5733 5731 5729 5726 5724 5722 5720 5717 5715 5713 5712 5711 5711 5711 5711 5712 5712 5711 5712 5713 5714 5715 5717 5718 5719 5721 5722 5724 5725 5727 5729 5731 5733 5735 5737 5738
5746 5743 5741 5738 5735 5733 5730 5727 5725 5722 5719 5717 5714 5712 5709 5707 5705 5704 5703 5702 5702 5702 5703 5703 5703 5703 5704 5705 5706 5707 5708 5710 5711 5713 5714 5716 5718 5719 5721 5723 5725 5727 5729
5741 5738 5735 5733 5730 5727 5724 5722 5719 5716 5713 5710 5707 5704 5702 5699 5697 5695 5695 5694 5693 5693 5694 5695 5694 5694 5695 5696 5696 5697 5699 5700 5702 5703 5705 5706 5708 5710 5712 5714 5715 5717 5719
5736 5733 5730 5728 5724 5721 5718 5715 5712 5710 5706 5704 5701 5697 5695 5692 5690 5688 5687 5686 5685 5685 5685 5686 5686 5685 5685 5686 5687 5688 5689 5690 5692 5694 5695 5697 5698 5700 5702 5704 5706 5707 5709
5731 5729 5726 5723 5719 5716 5712 5709 5707 5703 5700 5697 5694 5691 5688 5686 5684 5682 5681 5679 5678 5678 5678 5678 5677 5677 5676 5677 5677 5678 5679 5681 5682 5684 5685 5687 5689 5690 5692 5694 5696 5697 5699
5727 5724 5721 5717 5714 5711 5707 5704 5701 5697 5694 5691 5687 5684 5681 5679 5677 5675 5674 5673 5672 5671 5670 5670 5670 5669 5668 5668 5668 5669 5670 5671 5672 5674 5675 5677 5678 5680 5682 5684 5686 5688 5690
5722 5719 5716 5712 5709 5706 5702 5699 5695 5692 5688 5685 5681 5678 5675 5673 5671 5669 5668 5667 5665 5664 5664 5663 5662 5661 5661 5660 5660 5661 5661 5661 5663 5664 5665 5667 5668 5670 5672 5674 5677 5678 5680
5718 5715 5711 5707 5704 5700 5697 5693 5689 5686 5683 5679 5676 5673 5670 5667 5665 5663 5662 5660 5659 5658 5657 5656 5656 5654 5653 5652 5652 5652 5652 5652 5653 5654 5655 5657 5659 5660 5662 5664 5666 5668 5671
5714 5710 5706 5702 5699 5695 5691 5687 5684 5681 5677 5674 5671 5667 5664 5662 5659 5657 5656 5654 5653 5652 5651 5650 5649 5647 5646 5644 5643 5643 5643 5644 5645 5645 5645 5647 5648 5650 5652 5654 5656 5659 5661
5710 5706 5702 5698 5694 5691 5686 5683 5678 5675 5672 5669 5666 5663 5660 5657 5654 5652 5650 5648 5647 5646 5645 5644 5642 5640 5639 5637 5636 5636 5636 5636 5636 5636 5637 5638 5639 5641 5642 5644 5646 5649 5651
5706 5702 5698 5694 5691 5687 5682 5678 5674 5671 5667 5664 5661 5658 5655 5653 5650 5648 5646 5644 5642 5640 5639 5638 5636 5634 5632 5631 5630 5630 5629 5629 5629 5629 5629 5630 5631 5632 5634 5635 5637 5639 5641
5702 5698 5695 5691 5687 5683 5679 5675 5671 5668 5664 5660 5657 5654 5651 5649 5646 5644 5642 5640 5637 5635 5633 5632 5630 5628 5627 5626 5625 5624 5623 5623 5623 5622 5622 5623 5624 5625 5626 5627 5628 5630 5632
5699 5695 5692 5688 5685 5681 5677 5673 5669 5665 5661 5657 5654 5650 5647 5644 5642 5640 5638 5635 5633 5631 5629 5627 5625 5623 5622 5620 5619 5618 5617 5617 5616 5616 5615 5616 5616 5617 5619 5619 5620 5621 5623